Temperature
13 12 12 12 11 11 11 11 11 12 12 12 12 12 11 10 10 9 9 9 9 9 9 9 9 9 9 9 9 10 10 10 10 10 11 11 11 11 11 12 12 12 12
12 11 11 11 11 11 11 11 12 12 11 11 11 11 10 9 9 8 8 8 9 9 9 9 9 9 9 10 10 10 10 10 10 10 10 10 10 10 11 11 11 11 11
11 11 11 11 11 11 11 12 11 11 11 10 10 10 9 9 8 8 8 8 8 8 8 9 9 9 9 9 9 9 9 9 10 10 10 10 9 9 9 10 10 10 10
12 11 11 11 11 11 11 11 11 11 10 10 9 9 9 9 7 7 7 7 8 8 8 8 8 8 9 9 9 9 9 9 9 9 9 9 8 8 8 8 8 8 8
12 11 11 11 11 11 11 11 11 10 10 10 9 9 9 7 7 7 6 7 7 7 8 8 8 8 8 8 8 8 8 8 8 8 8 8 8 7 6 6 6 6 6
12 11 11 11 11 11 11 11 10 10 10 9 9 9 8 7 6 6 6 6 7 7 7 7 7 7 7 7 7 7 7 7 7 7 7 7 6 5 5 5 5 5 5
11 11 11 11 11 11 10 10 10 9 9 9 8 7 7 7 6 6 6 6 6 6 7 6 6 6 6 7 7 6 6 6 6 5 5 5 4 4 4 4 4 4 4
11 11 11 11 11 10 10 10 9 9 8 8 7 6 6 7 5 6 6 6 6 5 6 6 6 6 5 5 5 5 5 5 5 5 4 3 3 2 3 3 3 3 3
11 11 11 11 10 10 9 9 8 8 7 6 6 5 5 6 5 5 5 5 5 5 5 5 5 5 5 4 4 4 4 4 4 3 2 1 1 1 2 2 2 2 2
11 11 10 10 10 9 9 8 8 7 6 5 5 5 4 3 2 3 3 3 2 3 3 3 4 4 4 4 3 3 3 3 2 1 0 -0 0 0 1 1 1 1 1
10 10 10 10 9 9 8 8 7 6 6 5 4 4 3 2 2 1 2 2 2 1 0 0 1 1 1 1 0 -0 0 0 -0 -1 -2 -2 -1 -1 -1 -0 -0 0 0
10 10 10 9 9 8 8 7 6 6 5 4 4 3 2 1 1 0 0 1 0 0 -1 -1 -1 -1 -1 -1 -2 -3 -2 -2 -3 -4 -4 -3 -3 -2 -2 -2 -2 -1 -1
10 10 9 9 8 7 7 6 6 5 4 3 3 2 2 1 1 -0 -1 -1 -1 -1 -1 -1 -2 -2 -3 -3 -4 -4 -4 -4 -5 -5 -5 -4 -4 -4 -4 -4 -3 -3 -3
10 9 9 8 7 7 6 5 5 4 3 3 2 2 1 1 0 -1 -2 -2 -2 -1 -1 -1 -2 -3 -4 -5 -5 -6 -6 -6 -6 -6 -6 -5 -5 -5 -5 -5 -5 -4 -4
9 9 8 7 6 6 5 5 4 3 3 2 1 1 0 0 -0 -1 -2 -3 -3 -3 -2 -2 -3 -4 -5 -5 -6 -6 -6 -6 -6 -6 -6 -6 -6 -6 -6 -6 -5 -5 -5
9 8 7 6 6 5 4 4 3 3 2 1 1 0 -0 -1 -1 -1 -3 -4 -4 -5 -4 -4 -4 -5 -5 -6 -6 -6 -6 -7 -7 -7 -7 -7 -7 -7 -7 -6 -6 -6 -6
8 7 6 6 5 4 4 3 2 2 1 1 0 -0 -1 -1 -2 -3 -4 -4 -5 -5 -5 -5 -5 -6 -6 -6 -6 -6 -7 -7 -7 -7 -7 -7 -7 -7 -7 -7 -7 -7 -6
7 6 5 5 4 3 3 2 1 1 1 0 -1 -1 -2 -2 -3 -4 -5 -6 -6 -6 -6 -6 -6 -6 -6 -7 -7 -7 -7 -7 -7 -7 -7 -8 -8 -8 -8 -8 -7 -7 -7
6 5 4 4 3 2 2 1 1 0 -0 -1 -2 -2 -3 -4 -5 -5 -6 -6 -7 -7 -7 -7 -7 -7 -7 -7 -7 -7 -7 -7 -8 -8 -8 -8 -8 -8 -8 -8 -8 -8 -8
5 4 3 3 2 1 1 0 0 -0 -1 -2 -2 -3 -4 -5 -6 -7 -7 -7 -7 -7 -7 -7 -7 -7 -7 -7 -7 -7 -7 -8 -8 -8 -8 -8 -8 -8 -8 -8 -8 -8 -8
4 3 2 2 1 1 0 -0 -1 -2 -2 -3 -3 -4 -6 -6 -6 -8 -8 -8 -8 -8 -8 -7 -7 -7 -8 -7 -7 -8 -8 -9 -9 -9 -8 -8 -8 -8 -8 -8 -8 -8 -9
3 2 1 1 0 -0 -0 -1 -1 -2 -3 -4 -4 -5 -6 -7 -8 -8 -8 -8 -8 -8 -8 -8 -8 -8 -8 -8 -8 -9 -9 -9 -9 -8 -9 -8 -8 -8 -8 -8 -8 -8 -9
2 1 0 -0 -0 -1 -1 -1 -2 -2 -4 -4 -5 -6 -7 -8 -8 -8 -9 -8 -8 -8 -8 -8 -9 -9 -9 -9 -9 -9 -9 -9 -9 -9 -9 -9 -8 -8 -8 -8 -8 -8 -8
0 -0 -1 -1 -1 -1 -1 -2 -2 -3 -4 -5 -7 -7 -8 -8 -8 -9 -9 -8 -8 -9 -9 -9 -9 -10 -10 -9 -9 -9 -10 -10 -10 -9 -9 -9 -9 -9 -8 -8 -7 -7 -7
-1 -1 -1 -1 -1 -2 -2 -3 -3 -4 -6 -7 -8 -8 -8 -9 -9 -9 -9 -9 -9 -9 -9 -10 -10 -10 -9 -9 -10 -10 -10 -10 -10 -9 -9 -9 -9 -9 -9 -8 -6 -6 -7
-1 -1 -1 -2 -2 -2 -3 -3 -4 -6 -7 -8 -8 -8 -9 -9 -9 -9 -9 -9 -9 -10 -10 -10 -9 -9 -9 -9 -9 -10 -10 -10 -10 -10 -9 -10 -10 -10 -10 -8 -7 -7 -6
Wind_Speed
6 6 5 6 5 4 3 3 4 5 5 5 5 5 5 4 3 2 6 14 16 16 15 15 15 16 16 15 15 15 16 16 16 16 14 11 10 9 8 8 8 8 9
6 6 6 5 5 5 4 4 4 4 4 4 5 5 4 2 1 2 5 10 16 17 17 17 16 16 15 15 14 15 15 15 16 16 15 14 12 11 10 10 9 9 10
10 8 6 5 5 5 5 4 4 4 4 4 4 4 3 1 2 3 4 5 8 13 16 16 16 16 15 15 14 14 15 15 16 16 16 15 14 13 12 12 12 12 12
13 10 7 6 6 5 4 4 4 4 5 6 5 4 2 2 2 3 4 5 6 6 9 13 15 15 15 15 14 14 14 15 16 17 17 17 15 14 14 14 14 14 14
14 11 8 7 7 5 4 4 4 5 6 7 6 4 2 4 3 2 3 4 5 5 7 9 11 11 13 14 14 14 15 16 17 18 18 18 17 16 16 16 16 16 16
14 12 9 9 7 5 5 4 5 5 6 6 6 3 0 3 3 1 1 1 2 4 7 10 10 10 11 13 14 14 16 17 19 19 20 20 19 18 18 18 18 18 19
14 11 9 8 6 6 6 5 4 5 6 6 5 2 1 2 3 3 3 4 3 5 7 11 11 11 11 14 13 14 17 19 20 21 21 21 21 20 20 21 21 21 21
13 11 10 8 7 7 7 6 4 3 4 5 5 4 3 2 2 2 4 3 5 6 8 12 12 12 13 11 12 16 17 19 21 23 23 23 23 22 23 24 25 25 25
11 12 11 9 7 7 6 5 5 4 4 4 5 4 3 3 6 5 5 6 7 8 9 11 13 14 12 11 12 13 17 20 22 23 24 24 24 24 25 26 27 28 29
11 12 12 10 8 7 7 5 4 3 3 3 2 2 3 3 4 6 6 6 8 10 11 10 12 13 11 12 13 15 16 20 24 25 26 26 27 27 28 29 30 31 32
11 12 11 10 8 7 6 5 4 3 2 2 3 3 3 4 6 5 8 10 9 9 9 11 10 10 10 13 13 13 18 23 26 27 27 28 29 30 31 32 32 33 33
9 11 10 9 8 7 6 5 4 2 1 1 3 3 4 4 5 6 9 12 13 11 12 10 9 8 11 14 13 15 21 26 26 26 27 29 30 31 32 33 34 35 35
10 11 9 8 7 7 6 5 3 2 2 3 4 4 5 6 7 8 10 13 14 13 10 8 8 9 12 12 13 20 25 26 26 28 29 31 31 32 33 33 35 35 36
10 11 9 8 8 7 6 4 3 2 3 4 4 5 5 6 6 8 9 12 14 12 11 13 11 9 9 13 18 23 22 25 27 29 31 33 34 34 34 34 35 35 35
11 11 10 8 7 6 5 3 2 2 3 4 5 6 6 6 7 8 9 10 11 14 16 13 8 9 13 16 19 20 22 25 29 31 33 33 34 35 35 35 35 35 35
12 11 10 8 7 5 4 3 2 2 4 4 5 7 7 7 8 8 9 10 11 14 15 12 14 15 15 16 21 22 22 27 29 30 31 32 34 35 35 36 37 37 37
12 11 9 7 6 4 3 2 3 3 5 5 6 7 9 10 9 9 9 10 11 12 16 17 15 16 19 19 18 19 21 22 22 28 30 32 34 35 35 35 35 36 36
11 10 8 6 4 3 2 2 3 4 5 7 7 8 9 9 10 10 9 10 11 12 15 20 18 17 20 19 19 19 18 19 20 26 30 32 32 33 34 34 35 35 35
10 9 7 5 3 2 2 3 4 6 7 8 8 9 10 10 11 10 11 11 12 12 14 17 19 17 16 16 20 20 20 17 18 21 26 28 30 32 33 34 35 35 34
9 7 5 4 2 1 2 4 5 7 8 9 9 10 10 10 11 12 12 13 13 15 16 17 17 17 16 19 18 17 17 16 16 16 21 23 27 30 31 32 32 33 33
7 6 4 3 0 2 3 5 7 8 9 10 10 11 11 12 14 14 13 15 16 16 15 16 16 17 18 18 17 16 17 18 18 17 17 17 17 18 20 25 27 29 31
7 5 3 1 1 2 5 8 9 10 10 10 11 11 11 12 14 18 20 21 21 19 18 16 17 19 21 20 17 17 17 19 19 15 17 19 18 19 18 17 25 31 32
5 3 1 1 3 3 6 9 10 11 10 10 11 11 11 11 15 14 18 21 21 22 21 20 20 20 21 19 19 20 19 20 20 18 18 21 19 19 18 19 29 32 33
4 2 1 2 3 4 7 10 13 11 10 10 11 12 13 14 13 17 18 18 17 17 19 17 17 19 19 20 20 20 20 19 20 17 17 19 19 19 19 18 27 31 31
2 1 1 3 4 5 7 11 13 10 9 11 12 13 14 14 18 22 19 18 18 17 17 20 23 24 27 27 22 15 15 15 17 17 15 14 16 18 19 18 19 23 24
1 1 2 3 5 6 8 12 13 9 10 11 12 12 15 16 20 23 18 18 18 17 17 18 19 19 19 18 19 15 13 14 15 12 11 10 14 13 11 11 13 15 18
Wind_Direction
156 136 113 101 93 86 78 48 28 18 360 354 353 339 338 338 351 62 81 58 55 53 49 42 35 27 20 16 13 11 9 7 4 1 356 353 353 352 353 354 349 341 325
143 124 111 101 93 83 67 51 37 12 358 354 350 343 336 340 35 97 100 80 63 55 50 41 31 22 12 5 1 359 358 356 354 350 346 341 340 340 338 336 335 336 336
134 123 117 111 105 97 81 57 41 10 2 353 351 351 338 344 123 104 90 82 74 62 49 36 25 14 4 354 348 345 345 344 341 338 333 327 322 321 320 318 318 317 316
132 126 122 115 114 104 88 65 29 13 8 357 349 347 310 183 140 107 90 73 58 44 42 28 15 7 357 347 338 332 330 329 326 324 320 315 308 304 303 302 302 303 303
135 131 125 123 121 108 90 75 47 21 9 357 343 334 295 187 147 131 93 65 51 30 13 8 359 355 348 340 332 325 319 317 316 312 308 303 298 294 293 291 290 292 293
135 130 126 129 125 113 100 86 68 41 14 346 331 336 332 203 204 207 283 344 9 1 354 351 342 336 330 326 322 318 314 312 310 307 303 297 290 287 286 284 282 282 284
134 133 130 127 121 108 99 84 70 48 25 354 338 331 224 208 232 223 295 290 310 324 329 338 334 328 323 322 318 318 315 312 309 305 300 295 289 284 283 282 279 277 278
136 136 132 127 122 115 104 88 68 50 37 18 358 336 324 239 195 266 296 285 303 310 322 329 326 322 320 319 317 317 318 318 314 307 302 295 289 285 284 283 280 278 277
136 134 129 126 124 119 107 92 71 50 34 32 23 1 331 313 313 285 292 298 304 313 318 320 317 316 314 312 311 315 319 318 313 308 302 297 292 289 287 284 283 282 280
134 131 129 127 125 118 114 102 84 67 30 13 16 1 314 299 292 301 285 286 296 301 303 307 311 307 306 311 309 309 318 320 315 310 306 301 297 293 290 288 286 284 282
134 133 132 129 125 120 116 116 109 89 52 358 333 315 294 280 268 283 297 305 302 296 298 301 297 293 303 310 305 309 319 317 313 308 304 301 298 295 292 290 289 287 286
139 136 133 129 129 127 129 131 129 126 125 264 277 283 294 293 295 288 291 301 305 306 303 296 289 290 307 308 302 311 314 311 307 305 303 300 297 295 294 293 291 290 288
147 142 137 138 135 135 138 143 146 164 226 261 276 286 283 278 285 284 288 297 301 302 296 286 282 291 301 300 306 312 308 303 303 303 301 299 298 296 295 293 291 289 287
143 141 139 142 143 145 148 151 163 207 246 264 278 284 285 282 283 283 288 298 302 298 293 294 303 297 296 300 300 302 297 296 298 298 297 297 296 295 294 292 289 287 286
137 139 142 147 149 152 153 165 208 233 257 277 290 291 289 289 287 285 284 283 288 297 300 302 295 298 301 299 297 295 293 294 295 294 292 292 293 292 291 290 289 288 286
136 141 147 151 154 157 165 191 233 256 280 294 301 300 300 294 292 287 282 281 279 284 289 293 299 301 303 297 294 293 293 294 292 291 291 291 291 290 290 289 288 286 285
139 143 148 153 158 167 183 222 259 282 296 302 301 301 300 299 294 292 290 286 285 285 288 294 298 302 300 297 298 298 297 295 293 292 292 292 292 291 290 288 287 286 284
136 140 146 152 157 170 211 264 288 295 298 298 299 299 298 299 297 296 294 292 291 289 290 296 299 300 299 301 300 300 298 295 293 294 294 293 292 290 289 288 287 285 283
133 139 147 151 153 171 258 290 296 296 293 291 293 297 301 301 300 300 298 295 293 293 291 292 296 298 299 301 303 300 298 297 296 296 295 293 290 289 288 287 287 286 285
135 141 141 138 140 244 294 299 299 296 293 289 286 289 294 296 299 301 299 297 296 296 295 292 293 297 301 303 302 303 304 303 300 300 295 291 289 289 288 286 285 284 283
133 136 136 134 125 310 324 320 310 301 295 291 287 288 291 294 296 296 297 298 300 297 294 293 296 301 301 303 304 306 303 303 300 300 296 295 294 291 290 286 283 281 280
133 134 130 110 331 336 333 320 317 305 297 293 295 297 298 294 295 298 298 298 295 292 294 296 298 298 299 302 305 304 303 302 302 304 301 298 296 292 290 287 285 285 284
136 138 122 345 328 343 332 325 318 307 299 297 297 298 298 298 303 300 299 297 294 291 289 292 294 294 297 301 302 299 299 298 296 299 300 296 297 294 293 290 290 289 288
136 128 34 341 328 334 332 323 320 308 300 295 295 297 300 303 304 304 303 301 299 295 291 292 290 290 291 293 294 296 297 294 291 290 291 293 298 298 298 295 292 289 287
128 99 337 334 326 328 333 327 327 313 303 302 302 301 302 301 304 307 308 305 302 300 300 296 290 288 289 293 294 294 292 292 295 298 298 290 296 302 299 293 290 290 290
111 349 323 327 324 327 332 332 328 315 311 310 306 304 303 304 308 311 312 309 306 307 306 302 298 296 295 293 292 285 286 289 293 298 297 297 299 309 305 293 296 299 297
Height
1520 1521 1521 1522 1523 1524 1523 1522 1521 1519 1518 1515 1513 1511 1508 1507 1506 1505 1503 1501 1500 1500 1499 1498 1497 1497 1496 1495 1493 1493 1492 1491 1490 1490 1489 1489 1488 1488 1487 1487 1487 1487 1487
1518 1519 1520 1521 1522 1522 1521 1520 1519 1517 1515 1512 1509 1507 1505 1504 1503 1503 1502 1500 1498 1498 1497 1497 1496 1495 1494 1493 1491 1490 1489 1488 1487 1486 1485 1485 1484 1484 1483 1483 1483 1482 1482
1517 1518 1519 1520 1520 1520 1520 1519 1517 1514 1512 1509 1507 1505 1504 1502 1501 1501 1500 1499 1497 1496 1496 1495 1494 1492 1491 1490 1488 1487 1485 1484 1483 1482 1481 1480 1479 1478 1478 1477 1477 1476 1476
1515 1516 1517 1518 1519 1518 1518 1517 1515 1512 1510 1508 1506 1504 1502 1500 1500 1499 1498 1497 1495 1494 1493 1492 1490 1489 1487 1486 1484 1482 1481 1479 1478 1477 1476 1474 1473 1472 1471 1471 1470 1470 1469
1513 1515 1516 1517 1517 1517 1516 1515 1513 1511 1509 1506 1504 1502 1500 1499 1497 1497 1497 1495 1494 1492 1491 1489 1487 1485 1483 1481 1479 1477 1475 1473 1472 1470 1469 1468 1467 1466 1465 1464 1463 1463 1462
1510 1513 1514 1515 1516 1515 1514 1513 1512 1509 1507 1505 1503 1500 1498 1497 1496 1496 1495 1493 1491 1489 1487 1485 1483 1480 1478 1475 1473 1471 1468 1466 1465 1463 1461 1460 1459 1458 1457 1457 1456 1455 1454
1508 1510 1512 1514 1514 1514 1513 1511 1510 1507 1506 1504 1502 1500 1498 1495 1494 1493 1492 1491 1488 1486 1484 1482 1479 1476 1473 1470 1467 1465 1462 1460 1458 1456 1454 1453 1452 1450 1449 1449 1448 1447 1446
1505 1508 1510 1512 1512 1511 1510 1509 1508 1506 1504 1502 1501 1499 1499 1498 1494 1491 1489 1487 1486 1483 1481 1478 1474 1471 1467 1464 1461 1459 1456 1453 1451 1449 1447 1446 1444 1443 1442 1440 1439 1438 1437
1503 1505 1508 1509 1509 1509 1508 1507 1506 1504 1503 1501 1499 1499 1498 1496 1493 1489 1487 1484 1482 1479 1475 1472 1469 1465 1462 1458 1455 1452 1449 1446 1443 1441 1440 1439 1437 1435 1434 1432 1431 1429 1428
1501 1503 1505 1506 1506 1506 1505 1505 1504 1503 1501 1500 1498 1496 1496 1493 1490 1485 1482 1480 1476 1472 1469 1465 1462 1459 1455 1452 1448 1444 1441 1438 1435 1433 1431 1430 1428 1426 1425 1423 1421 1419 1418
1498 1500 1502 1503 1503 1503 1503 1502 1501 1500 1499 1498 1496 1494 1491 1489 1486 1484 1477 1474 1471 1467 1463 1458 1454 1452 1448 1444 1441 1437 1433 1429 1426 1424 1422 1420 1418 1416 1414 1412 1410 1409 1407
1494 1497 1499 1500 1500 1500 1500 1499 1498 1497 1495 1494 1492 1490 1488 1486 1483 1480 1474 1469 1464 1461 1456 1452 1448 1446 1442 1438 1434 1430 1425 1421 1417 1415 1413 1410 1408 1405 1403 1401 1399 1397 1395
1491 1494 1496 1498 1498 1497 1496 1495 1494 1493 1492 1490 1488 1486 1483 1481 1478 1475 1470 1464 1459 1454 1451 1447 1443 1440 1436 1432 1428 1423 1418 1413 1410 1407 1404 1401 1398 1395 1392 1389 1387 1385 1383
1489 1492 1494 1495 1495 1494 1493 1492 1491 1490 1488 1486 1484 1481 1479 1476 1473 1470 1466 1461 1453 1448 1446 1443 1439 1434 1430 1426 1421 1416 1411 1407 1404 1399 1395 1392 1388 1385 1382 1379 1376 1374 1372
1486 1489 1491 1492 1492 1491 1490 1488 1487 1486 1484 1482 1480 1477 1474 1471 1468 1464 1460 1456 1452 1443 1436 1434 1432 1428 1424 1420 1415 1410 1405 1401 1396 1392 1387 1383 1379 1375 1372 1368 1366 1363 1360
1484 1486 1488 1489 1489 1488 1486 1485 1483 1482 1480 1477 1475 1472 1469 1465 1462 1458 1454 1450 1446 1440 1432 1426 1425 1422 1417 1413 1409 1404 1399 1393 1388 1383 1378 1374 1369 1365 1361 1357 1354 1351 1348
1482 1484 1485 1486 1485 1484 1482 1481 1479 1477 1475 1473 1470 1466 1463 1459 1455 1452 1448 1444 1440 1435 1427 1420 1419 1414 1410 1406 1401 1397 1391 1385 1379 1374 1369 1364 1359 1354 1350 1346 1342 1339 1335
1479 1481 1482 1482 1481 1480 1479 1477 1475 1473 1470 1468 1464 1461 1457 1453 1449 1445 1441 1437 1434 1430 1424 1415 1410 1407 1403 1399 1394 1389 1384 1378 1371 1365 1359 1354 1348 1343 1339 1334 1330 1326 1323
1477 1478 1479 1479 1478 1476 1474 1472 1470 1468 1465 1462 1459 1455 1452 1447 1443 1440 1436 1432 1429 1425 1420 1413 1405 1401 1396 1392 1387 1381 1376 1369 1363 1357 1351 1344 1339 1333 1328 1323 1318 1314 1310
1476 1476 1476 1475 1474 1472 1470 1468 1465 1463 1460 1457 1453 1450 1446 1442 1438 1435 1431 1428 1424 1420 1415 1409 1401 1395 1390 1386 1381 1374 1367 1362 1355 1349 1342 1336 1330 1323 1318 1312 1306 1301 1297
1474 1474 1473 1472 1471 1469 1466 1463 1460 1458 1455 1452 1448 1444 1440 1436 1432 1429 1426 1423 1419 1414 1409 1403 1397 1390 1385 1380 1375 1369 1361 1354 1347 1342 1334 1327 1322 1314 1307 1301 1295 1290 1285
1471 1471 1470 1469 1467 1465 1462 1459 1456 1453 1450 1446 1443 1439 1435 1431 1427 1424 1421 1417 1414 1409 1404 1398 1392 1386 1380 1375 1369 1363 1356 1348 1338 1335 1329 1318 1314 1305 1298 1292 1285 1280 1275
1469 1469 1467 1466 1463 1460 1457 1454 1451 1447 1444 1441 1437 1433 1430 1426 1422 1418 1414 1411 1407 1403 1399 1394 1387 1380 1374 1369 1363 1356 1350 1343 1335 1328 1322 1309 1303 1296 1289 1281 1275 1269 1264
1466 1466 1464 1462 1459 1456 1453 1449 1445 1442 1438 1435 1432 1428 1425 1421 1417 1414 1409 1404 1400 1395 1391 1386 1380 1374 1368 1363 1358 1352 1345 1336 1327 1322 1318 1306 1296 1288 1280 1272 1264 1259 1254
1463 1462 1460 1458 1455 1452 1448 1444 1440 1436 1433 1430 1427 1423 1420 1416 1412 1408 1403 1397 1391 1387 1383 1378 1372 1367 1361 1356 1351 1345 1338 1331 1321 1313 1310 1302 1291 1282 1271 1263 1256 1251 1246
1461 1459 1456 1453 1450 1447 1444 1440 1435 1432 1429 1426 1422 1418 1414 1410 1406 1402 1397 1391 1384 1379 1374 1369 1364 1359 1354 1348 1344 1340 1333 1326 1317 1307 1300 1296 1287 1280 1266 1255 1252 1246 1240